| time (UTC) | temp F | wind direction | speed MPH | gust MPH | rain 1hr in | rain 24hr in | rain mn in | humidity % | barometer mb |
| 20260905204855 | 94 | 182 | 0.0 | 4.0 | 0.00 | 0.01 | 0.00 | 67 | 1007.4 |
| 20260905203956 | 94 | 184 | 0.0 | 4.0 | 0.00 | 0.01 | 0.00 | 66 | 1007.4 |
| 20260905203056 | 94 | 170 | 1.0 | 11.0 | 0.00 | 0.01 | 0.00 | 66 | 1007.5 |
| 20260905202156 | 94 | 155 | 0.0 | 6.0 | 0.00 | 0.01 | 0.00 | 67 | 1007.5 |
| 20260905201256 | 93 | 0 | 0.0 | 0.0 | 0.00 | 0.01 | 0.00 | 71 | 1007.6 |
| 20260905195456 | 92 | 143 | 0.0 | 5.0 | 0.00 | 0.01 | 0.00 | 70 | 1008.0 |
| 20260905194555 | 92 | 172 | 1.0 | 7.0 | 0.00 | 0.01 | 0.00 | 72 | 1008.0 |
| 20260905193656 | 91 | 181 | 3.0 | 12.0 | 0.00 | 0.01 | 0.00 | 72 | 1008.0 |
| 20260905192756 | 90 | 115 | 0.0 | 6.0 | 0.00 | 0.01 | 0.00 | 78 | 1008.4 |
| 20260905191856 | 90 | 122 | 0.0 | 3.0 | 0.00 | 0.01 | 0.00 | 76 | 1008.5 |
| 20260905190956 | 89 | 99 | 0.0 | 4.0 | 0.00 | 0.01 | 0.00 | 77 | 1008.5 |
| 20260905190056 | 89 | 124 | 0.0 | 4.0 | 0.00 | 0.01 | 0.00 | 78 | 1008.6 |
| 20260905184256 | 88 | 0 | 0.0 | 0.0 | 0.00 | 0.01 | 0.00 | 80 | 1008.8 |
| 20260905183356 | 88 | 0 | 0.0 | 0.0 | 0.00 | 0.01 | 0.00 | 80 | 1009.0 |
| 20260905182456 | 89 | 176 | 2.0 | 10.0 | 0.00 | 0.01 | 0.00 | 77 | 1009.0 |
| 20260905181556 | 90 | 161 | 1.0 | 10.0 | 0.00 | 0.01 | 0.00 | 75 | 1009.2 |
| 20260905180656 | 90 | 34 | 0.0 | 4.0 | 0.00 | 0.01 | 0.00 | 73 | 1009.2 |
| 20260905174856 | 92 | 0 | 0.0 | 0.0 | 0.00 | 0.17 | 0.00 | 70 | 1009.6 |
| 20260905173956 | 93 | 8 | 0.0 | 3.0 | 0.00 | 0.26 | 0.00 | 71 | 1009.6 |
| 20260905173055 | 93 | 7 | 0.0 | 5.0 | 0.00 | 0.36 | 0.00 | 70 | 1009.6 |
| 20260905172156 | 93 | 0 | 0.0 | 0.0 | 0.00 | 0.36 | 0.00 | 69 | 1009.6 |
| 20260905171256 | 92 | 0 | 0.0 | 0.0 | 0.00 | 0.36 | 0.00 | 70 | 1009.6 |
| 20260905170356 | 92 | 0 | 0.0 | 0.0 | 0.00 | 0.36 | 0.00 | 68 | 1009.8 |
| 20260905165456 | 90 | 0 | 0.0 | 0.0 | 0.00 | 0.36 | 0.00 | 71 | 1009.8 |
| 20260905164556 | 89 | 0 | 0.0 | 0.0 | 0.00 | 0.36 | 0.00 | 73 | 1010.0 |
| 20260905161856 | 89 | 0 | 0.0 | 0.0 | 0.00 | 0.36 | 0.00 | 76 | 1009.9 |
| 20260905160956 | 89 | 0 | 0.0 | 0.0 | 0.00 | 0.36 | 0.00 | 77 | 1009.9 |
| 20260905160056 | 88 | 0 | 0.0 | 0.0 | 0.00 | 0.36 | 0.00 | 80 | 1010.0 |
| 20260905155156 | 88 | 0 | 0.0 | 0.0 | 0.00 | 0.36 | 0.00 | 78 | 1010.0 |
| 20260905154256 | 87 | 0 | 0.0 | 0.0 | 0.00 | 0.36 | 0.00 | 84 | 1010.1 |
| 20260905153355 | 86 | 0 | 0.0 | 0.0 | 0.00 | 0.36 | 0.00 | 85 | 1010.1 |
| 20260905152455 | 86 | 0 | 0.0 | 0.0 | 0.00 | 0.36 | 0.00 | 84 | 1010.1 |
| 20260905151556 | 86 | 0 | 0.0 | 0.0 | 0.00 | 0.36 | 0.00 | 85 | 1010.1 |
| 20260905150656 | 86 | 0 | 0.0 | 0.0 | 0.00 | 0.36 | 0.00 | 86 | 1010.1 |
| 20260905145755 | 86 | 0 | 0.0 | 0.0 | 0.00 | 0.36 | 0.00 | 86 | 1010.1 |
| 20260905144856 | 86 | 0 | 0.0 | 0.0 | 0.00 | 0.36 | 0.00 | 87 | 1010.0 |
| 20260905143955 | 85 | 0 | 0.0 | 0.0 | 0.00 | 0.36 | 0.00 | 89 | 1010.0 |
| 20260905143056 | 85 | 0 | 0.0 | 0.0 | 0.00 | 0.36 | 0.00 | 90 | 1010.0 |
| 20260905142155 | 84 | 0 | 0.0 | 0.0 | 0.00 | 0.36 | 0.00 | 92 | 1010.0 |
| 20260905141256 | 83 | 0 | 0.0 | 0.0 | 0.00 | 0.36 | 0.00 | 94 | 1009.9 |
| 20260905135456 | 81 | 0 | 0.0 | 0.0 | 0.00 | 0.36 | 0.00 | 97 | 1009.8 |
| 20260905134556 | 81 | 0 | 0.0 | 0.0 | 0.00 | 0.36 | 0.00 | 98 | 1009.6 |
| 20260905133656 | 80 | 0 | 0.0 | 0.0 | 0.00 | 0.36 | 0.00 | 99 | 1009.6 |
| 20260905132755 | 80 | 0 | 0.0 | 0.0 | 0.00 | 0.36 | 0.00 | 98 | 1009.6 |
| 20260905131855 | 79 | 0 | 0.0 | 0.0 | 0.00 | 0.36 | 0.00 | 98 | 1009.6 |
| 20260905130055 | 79 | 0 | 0.0 | 0.0 | 0.00 | 0.36 | 0.00 | 98 | 1009.6 |
| 20260905125155 | 78 | 0 | 0.0 | 0.0 | 0.00 | 0.36 | 0.00 | 98 | 1009.6 |
| 20260905124255 | 78 | 0 | 0.0 | 0.0 | 0.00 | 0.36 | 0.00 | 97 | 1009.3 |
| 20260905121556 | 78 | 0 | 0.0 | 0.0 | 0.00 | 0.36 | 0.00 | 97 | 1009.1 |
| 20260905120655 | 78 | 0 | 0.0 | 0.0 | 0.00 | 0.36 | 0.00 | 97 | 1009.1 |
| 20260905114855 | 78 | 0 | 0.0 | 0.0 | 0.00 | 0.36 | 0.00 | 97 | 1008.6 |
| 20260905113056 | 78 | 0 | 0.0 | 0.0 | 0.00 | 0.36 | 0.00 | 96 | 1008.5 |
| 20260905111255 | 78 | 0 | 0.0 | 0.0 | 0.00 | 0.36 | 0.00 | 96 | 1008.5 |
| 20260905110356 | 79 | 0 | 0.0 | 0.0 | 0.00 | 0.36 | 0.00 | 96 | 1008.2 |
| 20260905105456 | 79 | 0 | 0.0 | 0.0 | 0.00 | 0.36 | 0.00 | 96 | 1008.2 |
| 20260905104556 | 79 | 0 | 0.0 | 0.0 | 0.00 | 0.36 | 0.00 | 96 | 1008.2 |
| 20260905103655 | 79 | 0 | 0.0 | 0.0 | 0.00 | 0.36 | 0.00 | 95 | 1008.2 |
| 20260905102755 | 79 | 0 | 0.0 | 0.0 | 0.00 | 0.36 | 0.00 | 95 | 1008.2 |
| 20260905101855 | 79 | 0 | 0.0 | 0.0 | 0.00 | 0.36 | 0.00 | 95 | 1008.3 |
| 20260905100956 | 79 | 0 | 0.0 | 0.0 | 0.00 | 0.36 | 0.00 | 95 | 1008.3 |
| 20260905095155 | 80 | 0 | 0.0 | 0.0 | 0.00 | 0.36 | 0.00 | 94 | 1008.3 |
| 20260905094256 | 80 | 0 | 0.0 | 0.0 | 0.00 | 0.36 | 0.00 | 94 | 1008.2 |
| 20260905092456 | 80 | 0 | 0.0 | 0.0 | 0.00 | 0.36 | 0.00 | 94 | 1008.3 |
| 20260905091555 | 80 | 0 | 0.0 | 0.0 | 0.00 | 0.37 | 0.00 | 94 | 1008.3 |
| 20260905085755 | 80 | 0 | 0.0 | 0.0 | 0.00 | 0.37 | 0.00 | 94 | 1008.0 |
| 20260905083955 | 80 | 0 | 0.0 | 0.0 | 0.00 | 0.38 | 0.00 | 94 | 1008.0 |
| 20260905081256 | 80 | 0 | 0.0 | 0.0 | 0.00 | 0.38 | 0.00 | 94 | 1008.0 |
| 20260905080355 | 80 | 0 | 0.0 | 0.0 | 0.00 | 0.38 | 0.00 | 94 | 1008.1 |
| 20260905074556 | 80 | 0 | 0.0 | 0.0 | 0.00 | 0.38 | 0.00 | 94 | 1008.3 |
| 20260905073656 | 81 | 0 | 0.0 | 0.0 | 0.00 | 0.38 | 0.00 | 93 | 1008.3 |
| 20260905072756 | 81 | 0 | 0.0 | 0.0 | 0.00 | 0.38 | 0.00 | 93 | 1008.5 |
| 20260905070955 | 81 | 0 | 0.0 | 0.0 | 0.00 | 0.38 | 0.00 | 93 | 1008.5 |
| 20260905070055 | 81 | 0 | 0.0 | 0.0 | 0.00 | 0.38 | 0.00 | 93 | 1008.7 |
| 20260905065156 | 81 | 0 | 0.0 | 0.0 | 0.00 | 0.38 | 0.00 | 93 | 1008.7 |
| 20260905064255 | 81 | 0 | 0.0 | 0.0 | 0.00 | 0.38 | 0.00 | 92 | 1008.6 |
| 20260905062455 | 82 | 0 | 0.0 | 0.0 | 0.00 | 0.38 | 0.00 | 92 | 1008.9 |
| 20260905061555 | 82 | 0 | 0.0 | 0.0 | 0.00 | 0.38 | 0.00 | 92 | 1008.9 |
| 20260905060656 | 82 | 0 | 0.0 | 0.0 | 0.00 | 0.38 | 0.00 | 92 | 1008.9 |
| 20260905055756 | 82 | 0 | 0.0 | 0.0 | 0.00 | 0.38 | 0.00 | 91 | 1008.8 |
| 20260905054856 | 82 | 0 | 0.0 | 0.0 | 0.00 | 0.38 | 0.00 | 91 | 1009.0 |
| 20260905053955 | 82 | 0 | 0.0 | 0.0 | 0.00 | 0.38 | 0.00 | 91 | 1009.0 |
| 20260905053055 | 82 | 0 | 0.0 | 0.0 | 0.00 | 0.38 | 0.00 | 91 | 1009.1 |
| 20260905051255 | 82 | 0 | 0.0 | 0.0 | 0.00 | 0.38 | 0.00 | 90 | 1009.1 |
| 20260905050356 | 82 | 0 | 0.0 | 0.0 | 0.00 | 0.38 | 0.00 | 90 | 1009.0 |
| 20260905045455 | 83 | 0 | 0.0 | 0.0 | 0.00 | 0.38 | 0.38 | 90 | 1009.0 |
| 20260905044555 | 83 | 0 | 0.0 | 0.0 | 0.00 | 0.38 | 0.38 | 90 | 1009.0 |
| 20260905043655 | 83 | 0 | 0.0 | 0.0 | 0.00 | 0.38 | 0.38 | 89 | 1009.0 |
| 20260905042756 | 83 | 0 | 0.0 | 0.0 | 0.00 | 0.38 | 0.38 | 89 | 1009.0 |
| 20260905041855 | 83 | 0 | 0.0 | 0.0 | 0.00 | 0.38 | 0.38 | 89 | 1009.1 |
| 20260905040955 | 83 | 0 | 0.0 | 0.0 | 0.00 | 0.38 | 0.38 | 89 | 1009.1 |
| 20260905040056 | 83 | 0 | 0.0 | 0.0 | 0.00 | 0.38 | 0.38 | 88 | 1009.2 |
| 20260905035156 | 84 | 0 | 0.0 | 0.0 | 0.00 | 0.38 | 0.38 | 88 | 1009.2 |
| 20260905034255 | 84 | 0 | 0.0 | 0.0 | 0.00 | 0.38 | 0.38 | 88 | 1009.2 |
| 20260905033356 | 84 | 186 | 1.0 | 5.0 | 0.00 | 0.38 | 0.38 | 87 | 1009.3 |
| 20260905031555 | 84 | 188 | 0.0 | 6.0 | 0.00 | 0.38 | 0.38 | 87 | 1009.3 |
| 20260905030655 | 84 | 188 | 1.0 | 7.0 | 0.00 | 0.38 | 0.38 | 86 | 1009.3 |
| 20260905025755 | 84 | 189 | 1.0 | 11.0 | 0.00 | 0.38 | 0.38 | 86 | 1009.2 |
| 20260905024855 | 85 | 187 | 1.0 | 10.0 | 0.00 | 0.38 | 0.38 | 86 | 1009.1 |
| 20260905023955 | 85 | 182 | 1.0 | 11.0 | 0.00 | 0.38 | 0.38 | 85 | 1009.1 |
| 20260905023055 | 85 | 172 | 1.0 | 7.0 | 0.00 | 0.38 | 0.38 | 85 | 1009.0 |
| 20260905022155 | 85 | 173 | 1.0 | 6.0 | 0.00 | 0.38 | 0.38 | 84 | 1009.0 |
| 20260905021255 | 85 | 172 | 1.0 | 6.0 | 0.00 | 0.38 | 0.38 | 84 | 1008.7 |
| 20260905020355 | 86 | 178 | 0.0 | 4.0 | 0.00 | 0.38 | 0.38 | 83 | 1008.6 |
| 20260905015455 | 86 | 178 | 1.0 | 5.0 | 0.00 | 0.38 | 0.38 | 83 | 1008.6 |
| 20260905014555 | 86 | 0 | 0.0 | 0.0 | 0.00 | 0.38 | 0.38 | 83 | 1008.5 |
| 20260905013655 | 86 | 0 | 0.0 | 0.0 | 0.00 | 0.38 | 0.38 | 83 | 1008.5 |
| 20260905012755 | 86 | 181 | 0.0 | 5.0 | 0.00 | 0.38 | 0.38 | 83 | 1008.2 |
| 20260905011855 | 86 | 181 | 0.0 | 9.0 | 0.00 | 0.38 | 0.38 | 82 | 1008.1 |
| 20260905010955 | 86 | 0 | 0.0 | 0.0 | 0.00 | 0.38 | 0.38 | 82 | 1008.1 |
| 20260905010055 | 86 | 0 | 0.0 | 0.0 | 0.00 | 0.38 | 0.38 | 80 | 1008.1 |
| 20260905005155 | 86 | 0 | 0.0 | 0.0 | 0.01 | 0.38 | 0.38 | 80 | 1008.1 |
| 20260905004255 | 86 | 179 | 0.0 | 7.0 | 0.01 | 0.38 | 0.38 | 80 | 1008.0 |
| 20260905003355 | 86 | 178 | 1.0 | 7.0 | 0.01 | 0.38 | 0.38 | 80 | 1007.6 |
| 20260905002455 | 86 | 165 | 1.0 | 6.0 | 0.01 | 0.38 | 0.38 | 80 | 1007.6 |
| 20260905001555 | 86 | 160 | 1.0 | 7.0 | 0.01 | 0.38 | 0.38 | 80 | 1007.6 |
| 20260905000655 | 87 | 199 | 0.0 | 11.0 | 0.01 | 0.38 | 0.38 | 82 | 1007.6 |
| 20260904235756 | 89 | 0 | 0.0 | 0.0 | 0.01 | 0.38 | 0.38 | 79 | 1007.5 |
| 20260904234855 | 89 | 0 | 0.0 | 0.0 | 0.00 | 0.37 | 0.37 | 75 | 1007.5 |
| 20260904233955 | 90 | 0 | 0.0 | 0.0 | 0.00 | 0.37 | 0.37 | 75 | 1007.5 |
| 20260904233055 | 90 | 0 | 0.0 | 0.0 | 0.00 | 0.37 | 0.37 | 74 | 1007.5 |
| 20260904232155 | 90 | 0 | 0.0 | 0.0 | 0.00 | 0.37 | 0.37 | 73 | 1007.5 |
| 20260904231255 | 90 | 0 | 0.0 | 0.0 | 0.00 | 0.37 | 0.37 | 74 | 1007.5 |
| 20260904230355 | 91 | 0 | 0.0 | 0.0 | 0.00 | 0.37 | 0.37 | 73 | 1007.5 |
| 20260904225455 | 91 | 0 | 0.0 | 0.0 | 0.00 | 0.37 | 0.37 | 74 | 1007.5 |
| 20260904224555 | 92 | 0 | 0.0 | 0.0 | 0.00 | 0.37 | 0.37 | 72 | 1007.5 |
| 20260904223655 | 92 | 0 | 0.0 | 0.0 | 0.00 | 0.37 | 0.37 | 70 | 1007.5 |
| 20260904221855 | 93 | 0 | 0.0 | 0.0 | 0.00 | 0.37 | 0.37 | 70 | 1007.6 |
| 20260904220955 | 94 | 34 | 1.0 | 9.0 | 0.00 | 0.37 | 0.37 | 70 | 1007.6 |
| 20260904220055 | 94 | 26 | 1.0 | 9.0 | 0.00 | 0.37 | 0.37 | 69 | 1007.7 |
| 20260904215155 | 94 | 77 | 0.0 | 7.0 | 0.00 | 0.37 | 0.37 | 70 | 1007.7 |
| 20260904214255 | 94 | 189 | 0.0 | 5.0 | 0.00 | 0.37 | 0.37 | 63 | 1007.7 |
| 20260904213355 | 93 | 188 | 0.0 | 9.0 | 0.00 | 0.37 | 0.37 | 64 | 1008.0 |
| 20260904212455 | 93 | 0 | 0.0 | 0.0 | 0.00 | 0.37 | 0.37 | 67 | 1008.0 |
| 20260904211555 | 93 | 0 | 0.0 | 0.0 | 0.00 | 0.37 | 0.37 | 66 | 1008.1 |
| 20260904205755 | 92 | 0 | 0.0 | 0.0 | 0.00 | 0.37 | 0.37 | 69 | 1008.4 |